This is the latest recevied weather packets stored in our database for station/object VU3HGG-15. If no packets are shown the sender has not sent any weather packets the latest 10 day(s).
| Time | Temp. | Humidity | Pressure | Rain* | Wind** | Luminosity | Snow |
|---|---|---|---|---|---|---|---|
| 1787752918 | 25.56° C | 73% | 910.9 hPa | - | - | - | - |
| 1787752318 | 25.56° C | 74% | 910.7 hPa | - | - | - | - |
| 1787751718 | 25.56° C | 74% | 910.6 hPa | - | - | - | - |
| 1787751118 | 26.11° C | 71% | 910.5 hPa | - | - | - | - |
| 1787750518 | 26.11° C | 69% | 910.2 hPa | - | - | - | - |
| 1787749918 | 26.11° C | 69% | 910.1 hPa | - | - | - | - |
| 1787749319 | 26.67° C | 69% | 910 hPa | - | - | - | - |
| 1787748719 | 26.11° C | 69% | 909.8 hPa | - | - | - | - |
| 1787748118 | 26.67° C | 69% | 909.7 hPa | - | - | - | - |
| 1787747518 | 26.67° C | 68% | 909.5 hPa | - | - | - | - |
| 1787746918 | 26.67° C | 67% | 909.3 hPa | - | - | - | - |
| 1787746318 | 26.67° C | 68% | 909.2 hPa | - | - | - | - |
| 1787745719 | 26.67° C | 69% | 909.1 hPa | - | - | - | - |
| 1787745118 | 26.67° C | 70% | 909.1 hPa | - | - | - | - |
| 1787744518 | 26.67° C | 69% | 909 hPa | - | - | - | - |
| 1787743918 | 26.67° C | 69% | 908.9 hPa | - | - | - | - |
| 1787743319 | 26.67° C | 69% | 908.9 hPa | - | - | - | - |
| 1787742718 | 26.67° C | 68% | 908.7 hPa | - | - | - | - |
| 1787742119 | 26.67° C | 68% | 908.7 hPa | - | - | - | - |
| 1787741518 | 26.67° C | 67% | 908.6 hPa | - | - | - | - |
| 1787740919 | 26.67° C | 63% | 908.6 hPa | - | - | - | - |
| 1787740319 | 26.67° C | 65% | 908.5 hPa | - | - | - | - |
| 1787739719 | 27.22° C | 64% | 908.5 hPa | - | - | - | - |
| 1787739119 | 27.22° C | 66% | 908.7 hPa | - | - | - | - |
| 1787738519 | 26.67° C | 67% | 908.7 hPa | - | - | - | - |
* Rain since midnight (hover to see other rain measurements)
** Current wind speed in m/s (hover to see current wind gust speed)